Home > Weather > The Bottom > Past weeks

Flag for Caribbean Netherlands Past Weather in The Bottom, Saba, Caribbean Netherlands — Yesterday and Last 2 Weeks

Now
88 °F

Warm.


Feels Like: 102 °F
Forecast: N/A
Wind: 15 mph from Northeast

Location: Roosevelt Airport / Saint Eustatius

Current Time: Jul 26, 2016 at 4:01:27 PM

Latest Report: Jul 26, 2016 at 2:55 PM


Visibility: N/A

Pressure: 29.98 "Hg

Humidity: 75%

Dew Point: 79 °F

Location of The BottomLocation

Past Weather in The Bottom — Graph

°F

The Bottom Temperature Yesterday

Maximum temperature yesterday: 88 °F (at 11:55 AM)
Minimum temperature yesterday: 79 °F (at 5:55 AM)
Average temperature yesterday: 83 °F

High & Low Weather Summary for the Past Weeks

 TemperatureHumidityPressure
High90 °F (Jul 12, 11:55 AM)94% (Jul 20, 11:55 PM)30.07 "Hg (Jul 20, 11:55 PM)
Low75 °F (Jul 23, 6:55 PM)59% (Jul 12, 11:55 AM)29.95 "Hg (Jul 15, 2:55 PM)
Average83 °F76%30.01 "Hg
* Reported Jul 11 2:55 PM — Jul 26 2:55 PM, The Bottom, Weather by CustomWeather, © 2016

Note: Actual official high and low records may vary slightly from our data, if they occured in-between our weather recording intervals... More about our weather records

Advertising

The Bottom Weather History for the Previous 24 Hours

Scroll right to see more
 ConditionsComfort  
Time TempWeatherWind HumidityBarometerVisibility
2:55 PM
Tue, Jul 26
88 °FWarm.15 mph75%29.98 "HgN/A
1:55 PM90 °FHot.17 mph67%29.98 "HgN/A
12:55 PM88 °FWarm.17 mph70%29.98 "HgN/A
11:55 AM88 °FWarm.16 mph70%30.01 "HgN/A
10:55 AM88 °FWarm.16 mph70%30.01 "HgN/A
9:55 AM86 °FWarm.16 mph75%30.01 "HgN/A
8:55 AM84 °FWarm.15 mph79%30.01 "HgN/A
7:55 AM82 °FWarm.13 mph79%30.01 "HgN/A
6:55 AM82 °FWarm.12 mph79%29.98 "HgN/A
5:55 AM81 °FWarm.12 mph84%29.98 "HgN/A
4:55 AM81 °FWarm.10 mph89%29.98 "HgN/A
3:55 AM81 °FWarm.13 mph84%29.95 "HgN/A
2:55 AM79 °FWarm.16 mph89%29.98 "HgN/A
1:55 AM81 °FWarm.9 mph89%29.98 "HgN/A
12:55 AM81 °FWarm.10 mph89%29.98 "HgN/A
11:55 PM
Mon, Jul 25
81 °FWarm.13 mph89%30.01 "HgN/A
10:55 PM81 °FWarm.12 mph89%30.01 "HgN/A
9:55 PM81 °FWarm.12 mph89%30.01 "HgN/A
8:55 PM82 °FWarm.12 mph84%30.01 "HgN/A
7:55 PM82 °FWarm.14 mph84%29.98 "HgN/A
6:55 PM82 °FWarm.14 mph84%29.98 "HgN/A
5:55 PM82 °FWarm.17 mph84%29.95 "HgN/A
4:55 PM84 °FWarm.16 mph74%29.95 "HgN/A
Weather by CustomWeather, © 2016

See weather overviewHow to use our weather pages